Regional Weather Roundup
Issued by NWS

Home | Current Version | Previous Version | Text Only | Print | Product List | Glossary On
Versions: 1 2 3 4 5 6 7 8 9 10 11 12 13 14 15 16 17 18 19 20 21 22 23 24 25 26 27 28 29 30 31 32 33 34 35 36 37 38 39 40 41 42 43 44 45 46 47 48 49
000
ASUS42 KFFC 310503
RWRGA
WEATHER ROUNDUP FOR GEORGIA
NATIONAL WEATHER SERVICE PEACHTREE CITY GA
100 AM EDT THU JUL 31 2014

NOTE: "FAIR" INDICATES FEW OR NO CLOUDS BELOW 12,000 FEET WITH NO
SIGNIFICANT WEATHER AND/OR OBSTRUCTIONS TO VISIBILITY.

* = USE WITH CAUTION. THE STATIONS MARKED WITH AN ASTERISK MAY NOT
REPORT WEATHER SUCH AS PRECIPITATION, FOG, OR THUNDER AND ARE NOT
QUALITY CONTROLLED BY NWS.

THE REMARK "TC" DENOTES TEMPERATURE READING IN DEGREES CELSIUS.

GAZ001>058-310600-
NORTH GEORGIA

CITY           SKY/WX    TMP DP  RH WIND       PRES   REMARKS
ATLANTA        MOCLDY    74  58  57 N5        30.06R
ATHENS         MOCLDY    72  62  71 NE6       30.06S
CHAMBLEE       MOCLDY    70  59  68 N6        30.07R
PEACHTREE CITY CLEAR     66  62  87 CALM      30.06R
ROME           CLOUDY    68  59  73 N5        30.07R
WEST ATLANTA   MOCLDY    67  61  81 CALM      30.06R
GAINESVILLE    MOCLDY    70  60  70 NE5       30.11R
CARTERSVILLE   CLOUDY    66  58  75 CALM      30.07S


CITY           SKY/WX    TMP DP  RH WIND       PRES   REMARKS
DALTON*        MOCLDY    64  59  82 CALM      30.08R
MARIETTA       CLOUDY    71  60  69 N5        30.07S
$$

GAZ059>098-102>109-310600-
CENTRAL GEORGIA

CITY           SKY/WX    TMP DP  RH WIND       PRES   REMARKS
AUGUSTA-BUSH   MOCLDY    73  67  81 CALM      30.03S
AUGUSTA-DANIEL MOCLDY    77  67  71 E6        30.05R
COLUMBUS       MOCLDY    72  63  73 CALM      30.02S
MACON          MOCLDY    69  67  93 W3        30.02S
ROBINS AFB     MOCLDY    71  67  85 N3        30.01S


CITY           SKY/WX    TMP DP  RH WIND       PRES   REMARKS
LAGRANGE*      MOCLDY    68  65  91 CALM      30.05R
SYLVANIA*      CLOUDY    73  73  98 CALM      30.03S
MILLEDGEVILLE* MOCLDY    72  61  68 CALM      30.02F
$$

GAZ099>101-110>166-310600-
SOUTH GEORGIA

CITY           SKY/WX    TMP DP  RH WIND       PRES   REMARKS
SAVANNAH       PTCLDY    77  69  76 NE9       30.00F
VALDOSTA       CLEAR     70  62  76 CALM      29.99S
ALMA           MOCLDY    76  71  85 CALM      29.99S
ST SIMONS      PTCLDY    81  73  76 E7        29.97F
FT STEWART     MOCLDY    76  73  91 NE5       29.99S
ALBANY         PTCLDY    69  62  78 CALM      30.02S
HUNTER AFB     CLEAR     76  71  83 N2        29.98F
MOODY AFB      CLEAR     70  67  89 NE1       29.99S
BRUNSWICK      CLEAR     77  72  83 CALM      29.98F


CITY           SKY/WX    TMP DP  RH WIND       PRES   REMARKS
BAINBRIDGE*    CLEAR     75  63  64 N3        30.00F
MOULTRIE*      PTCLDY    70  66  88 CALM      30.01S
VIDALIA*         N/A     75  72  88 N3        30.02R
WAYCROSS*      CLEAR     79  75  88 SE3       29.98F
DOUGLAS*       MOCLDY    79  63  57 N3        30.01S
$$



USA.gov is the U.S. government's official web portal to all federal, state and local government web resources and services.